Dati Storici

Data ora Umidita' aria (%) Temperatura aria (°C) Rad globale (W/m²) Gonioanemometro (°) Tacoanemometro (m/s) Pioggia (mm)
06-11-2012 02:10 76.1 % 8.693 2.215 357.499 3.25 0
06-11-2012 02:00 76.4 % 8.779 1.807 18.159 3.201 0
06-11-2012 01:50 77 % 8.833 1.96 350.569 1.598 0
06-11-2012 01:40 77.5 % 8.923 2.179 29.374 1.586 0
06-11-2012 01:30 77.8 % 8.954 2.063 357.756 1.716 0
06-11-2012 01:20 77.6 % 9.081 2.036 5.891 1.615 0
06-11-2012 01:10 77.5 % 9.267 1.985 16.173 2.549 0
06-11-2012 01:00 77.7 % 9.32 1.921 26.997 2.946 0
06-11-2012 00:50 78 % 9.517 1.921 40.852 2.505 0
06-11-2012 00:40 78.3 % 9.426 1.655 348.632 1.277 0
06-11-2012 00:30 78.2 % 9.651 1.721 24.879 1.148 0
06-11-2012 00:20 78.2 % 9.84 1.529 42.473 1.547 0
06-11-2012 00:10 78.2 % 10.018 1.785 25.733 0.655 0
06-11-2012 00:00 78.3 % 10.079 1.682 9.005 1.063 0
05-11-2012 23:50 78 % 10.13 1.696 15.667 1.012 0
05-11-2012 23:40 77.6 % 10.039 1.415 39.617 1.336 0
05-11-2012 23:30 76.7 % 10.12 1.607 39.245 1.016 0
05-11-2012 23:20 75.9 % 10.39 1.474 26.892 1.696 0
05-11-2012 23:10 75.8 % 10.764 1.486 41.441 0.611 0
05-11-2012 23:00 75.1 % 10.789 1.486 66.123 0.771 0

I dati sono presentati in modo automatico a scopo informativo. In seguito a verifica i dati possono subire modifiche o essere invalidati e non riportati negli archivi definitivi.